Location: Blue Sky Observatory
(43.1153°N, 70.9036°W)
Time: 10:46:29
(UTC-05:00)

Daily predictions for brighter satellites

Satellite Brightness Start Highest point End
(mag) Time Altitude Azimuth Time Altitude Azimuth Time Altitude Azimuth
Cosmos 1378 Rocket 3.7 17:50:00 10° N 17:54:21 53° E 17:58:41 10° SSE
Gbstr 26 Del rocket 3.5 17:54:06 10° SSW 17:57:29 33° SE 18:00:57 10° ENE
Cosmos 2227 Rocket 3.5 17:53:27 10° SW 17:58:47 42° WNW 18:04:10 10° NNE
Cosmos 2237 Rocket 4.4 17:54:01 10° NW 17:58:56 32° WSW 18:03:50 10° SSW
Cosmos 405 3.9 17:55:32 10° SSW 17:58:58 52° WNW 18:02:26 10° N
Resurs 01 Rocket 3.5 18:01:58 10° E 18:03:24 11° ENE 18:04:51 10° NE
FengYun 1-2 T 4.5 17:58:27 10° SE 18:03:39 46° ENE 18:08:52 10° N
ERS-2 2.9 18:02:02 10° SE 18:05:18 30° ENE 18:08:34 10° N
SL-16 R/B 2.6 18:00:35 10° NNW 18:06:14 69° WSW 18:11:50 10° SSE
Cosmos 1782 Rocket 4.0 18:04:41 10° SSE 18:08:50 41° E 18:13:00 10° NNE
Okean 3 3.8 18:06:19 10° NNW 18:10:30 72° W 18:14:39 10° S
CENTAUR R/B 2.7 18:05:38 10° SW 18:11:38 80° NW 18:18:37 10° NE
Cosmos 2297 Rocket 3.7 18:06:46 10° SW 18:12:02 39° WNW 18:17:20 10° NNE
Envisat 4.0 18:08:03 10° ESE 18:12:08 25° ENE 18:16:16 10° N
Aureole 3 4.2 18:06:46 10° SSW 18:12:13 71° W 18:16:28 10° N
CZ-4C R/B 3.6 18:07:14 10° NNW 18:13:30 34° NE 18:20:07 11° ESE
FALCON 9 R/B 4.3 18:07:37 10° WSW 18:13:47 53° S 18:36:25 10° ESE
OE (NEXTSAT) 4.5 18:11:24 10° WSW 18:14:56 66° SSE 18:17:56 14° ENE
COSMO-SKYMED 1 3.4 18:14:12 10° N 18:18:27 55° WNW 18:22:40 10° SSW
SL-8 R/B 4.2 18:14:41 10° W 18:19:23 54° NNW 18:23:41 12° ENE
H-2A R/B 2.7 18:16:43 10° SSE 18:20:36 72° ENE 18:24:29 10° N
OAO 2 Rocket 4.5 18:16:55 10° WSW 18:21:20 32° S 18:25:31 11° ESE
FREGAT/IRIS 2.8 18:18:44 10° SSE 18:21:34 44° ENE 18:24:26 10° N
USA 267 4.5 18:16:43 10° ENE 18:22:05 28° N 18:27:27 10° NW
HJ-1C 4.1 18:19:21 10° SE 18:22:27 33° ENE 18:25:34 10° N
Cosmos 1603 3.7 18:19:44 10° NNW 18:25:21 59° ENE 18:30:52 10° SE
Cosmos 1110 Rocket 4.2 18:21:09 10° N 18:26:18 50° ENE 18:31:27 10° SE
Tsikada Rocket 4.2 18:20:12 10° SSE 18:26:24 54° E 18:32:37 10° NNE
Sich 1 Rocket 3.6 18:23:47 10° S 18:28:16 90° E 18:32:44 10° N
Cosmos 921 Rocket 3.3 18:25:40 10° NNW 18:30:11 74° WSW 18:34:37 10° S
COSMOS 2455 3.2 18:26:57 10° S 18:32:30 40° ESE 18:38:06 10° NE
Cosmos 1269 Rocket 4.0 18:27:22 10° SSW 18:32:39 90° NE 18:37:58 10° NNE
Cosmos 1464 Rocket 4.3 18:27:14 10° NNW 18:33:21 72° W 18:39:27 10° S
Thor Agena Rocket 4.0 18:29:35 10° NNE 18:34:17 36° E 18:38:54 10° SSE
Cosmos 2263 Rocket 2.9 18:31:16 10° SSE 18:36:03 31° ESE 18:40:53 10° NE
USA 32 4.0 18:31:59 10° S 18:37:13 89° E 18:42:29 10° N
Okean 2 Rocket 3.2 18:33:39 10° S 18:37:54 52° E 18:42:13 10° NNE
SJ-6B 2.9 18:35:05 10° SSE 18:38:45 49° ENE 18:42:32 10° N
USA 186 3.3 18:39:21 21° NE 18:39:21 21° NE 18:41:25 10° NNE
Iridium 4 Rocket 3.4 18:34:46 10° N 18:39:29 73° W 18:43:49 10° S
Meteor 1-4 Rocket 2.6 18:37:41 10° S 18:41:06 48° E 18:44:35 10° NNE
Meteor 1-13 Rocket 4.1 18:38:54 10° N 18:44:24 62° ENE 18:49:51 10° SSE
ALOS 4.4 18:40:31 10° SSW 18:44:36 30° W 18:48:42 10° NW
CZ-2D R/B 3.4 18:43:10 10° SSE 18:46:57 52° ENE 18:50:46 10° N
Cosmos 2151 Rocket 4.1 18:43:45 10° SSE 18:47:48 35° E 18:51:52 10° NNE
Cosmos 1602 3.9 18:49:04 10° SSW 18:52:57 74° W 18:56:51 10° N
Cosmos 1331 Rocket 3.9 18:50:01 10° NNW 18:55:22 79° ENE 19:00:39 10° SSE
Cosmos 2346 Rocket 4.4 18:50:36 10° S 18:56:44 71° E 19:02:51 10° NNE
Alouette 2 Rocket 3.1 18:56:50 10° S 19:00:19 61° E 19:04:12 10° NNE
Spot 2 Rocket 4.0 19:00:17 31° E 19:01:33 36° ENE 19:06:10 10° N
ATLAS CENTAUR R/B 1.6 18:57:30 10° NNW 19:01:36 52° NE 19:02:49 39° ESE
YAOGAN 6 4.0 19:03:07 23° NNE 19:03:07 23° NNE 19:04:56 10° N
H-2A R/B 4.3 19:06:39 10° NE 19:06:39 10° NE 19:06:54 10° NE
Meteor 2-4 Rocket 3.6 19:03:43 10° N 19:09:32 84° E 19:15:07 10° S
ARGOS Delta rocket 3.6 19:05:38 10° NNE 19:10:26 84° E 19:14:58 10° S
Meteor 1-5 Rocket 4.3 19:06:17 10° S 19:12:05 62° E 19:18:00 10° NNE
Cosmos 1975 Rocket 4.4 19:09:37 10° NNW 19:13:50 42° W 19:18:01 10° SSW
Resurs 1-3 3.5 19:16:55 52° ESE 19:17:38 60° ENE 19:21:58 10° N
Cosmos 2251 Rocket 3.3 19:15:22 10° S 19:20:34 71° ESE 19:25:48 10° NNE
Cosmos 1634 Rocket 3.8 19:14:57 10° N 19:21:10 81° E 19:27:20 10° S
SeaSat 1 2.3 19:21:54 39° SE 19:23:46 81° ENE 19:28:43 10° NNW
Cosmos 1536 2.8 19:23:12 10° S 19:27:15 82° W 19:31:21 10° N
Cosmos 1302 Rocket 3.8 19:22:24 10° NNW 19:27:38 85° ENE 19:29:32 40° SSE
Cosmos 1943 3.2 19:23:05 10° NNW 19:28:46 78° WSW 19:32:10 25° SSE
Lacrosse 5 rocket 3.3 19:26:23 10° SSW 19:27:09 15° SSW 19:27:09 15° SSW
USA 215 3.2 19:27:29 35° ENE 19:30:19 64° SE 19:36:47 10° SW
Cosmos 1184 Rocket 4.2 19:28:25 10° NNW 19:31:30 38° W 19:32:30 29° SW
Cosmos 2142 Rocket 4.4 19:26:43 10° N 19:33:05 86° E 19:39:17 10° S
Meteor 1-11 Rocket 4.1 19:28:14 10° SSW 19:33:46 63° WNW 19:39:29 10° N
Resurs 01 Rocket 1.6 19:38:44 69° SSW 19:39:14 81° WSW 19:43:40 10° NNW
Gbstr 26 Del rocket 3.7 19:40:37 10° W 19:43:58 42° NNW 19:43:58 42° NNW
Cosmos 1536 Rocket 3.9 19:40:06 10° NNW 19:44:28 64° W 19:45:08 55° SW
Envisat 4.2 19:46:09 10° SSW 19:50:56 41° W 19:55:45 10° NNW
Meteor 2-20 4.3 19:57:09 77° ESE 19:57:14 78° E 20:03:26 10° N
Cosmos 1939 Rocket 4.0 19:59:33 43° WNW 19:59:33 43° WNW 20:02:48 10° NNW
CZ-4C R/B 3.1 19:55:27 10° NW 20:02:40 72° WSW 20:05:22 44° SSE
USA 267 3.5 20:03:53 51° NE 20:04:12 51° NNE 20:10:29 10° NW
Cosmos 2180 Rocket 4.5 20:09:00 10° N 20:15:15 80° W 20:15:17 80° W
COSMOS 2455 4.1 20:12:55 10° WSW 20:18:28 38° NW 20:23:21 13° NNE
Cosmos 2263 Rocket 3.3 20:14:36 10° SW 20:19:49 40° WNW 20:24:40 12° N
ATLAS CENTAUR R/B 4.2 20:37:21 10° WNW 20:39:07 16° W 20:39:07 16° W
H-2A R/B 4.2 20:47:17 20° N 20:47:17 20° N 20:48:49 10° N
USA 215 4.3 21:14:51 39° WNW 21:14:51 39° WNW 21:19:22 10° W
